Location: Unspecified
(53.4285°N, 0.0000°E)
Time: 03:58:28
(UTC+00:00)

KAZEOSAT 1 - Visible Passes

Search period start: 04 April 2026 00:00
Search period end: 14 April 2026 00:00
Orbit: 751 x 753 km, 98.3° (Epoch: 29 March)

Date Brightness Start Highest point End Pass type
(mag) Time Alt. Az. Time Alt. Az. Time Alt. Az.
4 Apr ? 19:55:05 12° E 19:57:53 18° NE 20:01:16 10° N visible
4 Apr ? 21:34:59 59° SSE 21:35:57 87° ENE 21:41:00 10° NNW visible
4 Apr ? 23:14:54 17° W 23:15:23 17° W 23:18:37 10° NW visible
5 Apr ? 19:17:07 10° NE 19:17:49 10° NE 19:18:33 10° NE visible
5 Apr ? 20:53:43 32° ESE 20:55:23 43° ENE 21:00:08 10° N visible
5 Apr ? 22:33:38 33° WSW 22:34:15 34° W 22:38:49 10° NNW visible
6 Apr ? 20:12:26 16° E 20:15:01 24° ENE 20:18:58 10° N visible
6 Apr ? 21:52:21 55° SSW 21:53:20 70° WSW 21:58:22 10° NNW visible
6 Apr ? 23:32:16 12° W 23:33:01 12° W 23:35:00 10° WNW visible
7 Apr ? 19:32:33 10° ENE 19:34:53 13° NE 19:37:12 10° NNE visible
7 Apr ? 21:11:05 40° SE 21:12:40 58° ENE 21:17:36 10° N visible
7 Apr ? 22:50:59 24° WSW 22:51:45 25° W 22:55:54 10° NW visible
8 Apr ? 20:29:49 20° ESE 20:32:13 30° ENE 20:36:34 10° N visible
8 Apr ? 22:09:43 44° SW 22:10:45 51° W 22:15:40 10° NNW visible
9 Apr ? 19:48:49 10° E 19:51:59 17° NE 19:55:08 10° NNE visible
9 Apr ? 21:28:27 45° SSE 21:29:59 79° ENE 21:35:02 10° NNW visible
9 Apr ? 23:08:22 18° WSW 23:09:20 19° W 23:12:50 10° NW visible
10 Apr ? 20:47:11 25° ESE 20:49:26 40° ENE 20:54:07 10° N visible
10 Apr ? 22:27:05 33° SW 22:28:13 37° W 22:32:54 10° NNW visible
11 Apr ? 20:05:55 12° E 20:09:07 22° NE 20:12:53 10° N visible
11 Apr ? 21:45:49 46° S 21:47:20 78° WSW 21:52:24 10° NNW visible
11 Apr ? 23:25:44 13° W 23:26:56 14° W 23:29:26 10° NW visible
12 Apr ? 21:04:33 31° SE 21:06:42 53° ENE 21:11:35 10° N visible
12 Apr ? 22:44:27 25° WSW 22:45:43 28° W 22:50:01 10° NW visible
13 Apr ? 20:23:17 16° ESE 20:26:17 28° ENE 20:30:31 10° N visible
13 Apr ? 22:03:11 40° SSW 22:04:45 57° W 22:09:43 10° NNW visible
